| time (UTC) | temp F | wind direction | speed MPH | gust MPH | rain 1hr in | rain 24hr in | rain mn in | humidity % | barometer mb |
| 20260503043044 | 81 | 288 | 4.0 | 9.0 | 0.00 | 0.00 | 0.00 | 77 | 1014.0 |
| 20260503041505 | 82 | 279 | 4.0 | 8.0 | 0.00 | 0.00 | 0.00 | 76 | 1013.8 |
| 20260503040047 | 82 | 255 | 5.0 | 8.0 | 0.00 | 0.00 | 0.00 | 76 | 1013.8 |
| 20260503034514 | 82 | 247 | 3.0 | 10.0 | 0.00 | 0.00 | 0.00 | 75 | 1013.7 |
| 20260503033038 | 82 | 296 | 3.0 | 10.0 | 0.00 | 0.00 | 0.00 | 75 | 1013.5 |
| 20260503031504 | 82 | 278 | 6.0 | 10.0 | 0.00 | 0.00 | 0.00 | 73 | 1013.4 |
| 20260503030041 | 82 | 270 | 5.0 | 11.0 | 0.00 | 0.00 | 0.00 | 72 | 1013.4 |
| 20260503024533 | 82 | 252 | 5.0 | 13.0 | 0.00 | 0.00 | 0.00 | 71 | 1013.3 |
| 20260503023054 | 83 | 252 | 5.0 | 12.0 | 0.00 | 0.00 | 0.00 | 70 | 1013.4 |
| 20260503021522 | 83 | 271 | 6.0 | 13.0 | 0.00 | 0.00 | 0.00 | 68 | 1013.3 |
| 20260503020040 | 84 | 298 | 8.0 | 13.0 | 0.00 | 0.00 | 0.00 | 67 | 1013.2 |
| 20260503014540 | 84 | 250 | 5.0 | 12.0 | 0.00 | 0.00 | 0.00 | 65 | 1013.1 |
| 20260503013100 | 85 | 281 | 7.0 | 16.0 | 0.00 | 0.00 | 0.00 | 64 | 1012.9 |
| 20260503011518 | 85 | 293 | 9.0 | 17.0 | 0.00 | 0.00 | 0.00 | 62 | 1012.7 |
| 20260503010052 | 86 | 275 | 8.0 | 16.0 | 0.00 | 0.00 | 0.00 | 60 | 1012.5 |
| 20260503004548 | 86 | 262 | 10.0 | 15.0 | 0.00 | 0.00 | 0.00 | 58 | 1012.3 |
| 20260503003017 | 87 | 262 | 8.0 | 15.0 | 0.00 | 0.00 | 0.00 | 55 | 1012.1 |
| 20260503001604 | 88 | 306 | 8.0 | 17.0 | 0.00 | 0.00 | 0.00 | 53 | 1011.9 |
| 20260503000023 | 89 | 296 | 7.0 | 18.0 | 0.00 | 0.00 | 0.00 | 49 | 1011.8 |
| 20260502234532 | 90 | 272 | 5.0 | 14.0 | 0.00 | 0.00 | 0.00 | 44 | 1011.4 |
| 20260502233052 | 90 | 292 | 7.0 | 14.0 | 0.00 | 0.00 | 0.00 | 42 | 1011.2 |
| 20260502231517 | 91 | 289 | 7.0 | 14.0 | 0.00 | 0.00 | 0.00 | 42 | 1010.8 |
| 20260502230043 | 91 | 272 | 5.0 | 11.0 | 0.00 | 0.00 | 0.00 | 42 | 1010.6 |
| 20260502224542 | 92 | 301 | 5.0 | 17.0 | 0.00 | 0.00 | 0.00 | 42 | 1010.5 |
| 20260502223012 | 93 | 213 | 4.0 | 16.0 | 0.00 | 0.00 | 0.00 | 42 | 1010.4 |
| 20260502221540 | 93 | 203 | 5.0 | 14.0 | 0.00 | 0.00 | 0.00 | 41 | 1010.4 |
| 20260502220004 | 94 | 298 | 5.0 | 15.0 | 0.00 | 0.00 | 0.00 | 41 | 1010.3 |
| 20260502214509 | 94 | 247 | 5.0 | 14.0 | 0.00 | 0.00 | 0.00 | 39 | 1010.2 |
| 20260502213036 | 94 | 290 | 7.0 | 15.0 | 0.00 | 0.00 | 0.00 | 40 | 1010.1 |
| 20260502211556 | 95 | 242 | 10.0 | 18.0 | 0.00 | 0.00 | 0.00 | 39 | 1010.0 |
| 20260502210010 | 94 | 251 | 8.0 | 16.0 | 0.00 | 0.00 | 0.00 | 40 | 1009.8 |
| 20260502203010 | 94 | 222 | 10.0 | 23.0 | 0.00 | 0.00 | 0.00 | 41 | 1010.0 |
| 20260502200043 | 94 | 206 | 6.0 | 20.0 | 0.00 | 0.00 | 0.00 | 44 | 1010.3 |
| 20260502194535 | 94 | 257 | 10.0 | 18.0 | 0.00 | 0.00 | 0.00 | 44 | 1010.3 |
| 20260502193002 | 95 | 224 | 10.0 | 21.0 | 0.00 | 0.00 | 0.00 | 43 | 1010.4 |
| 20260502191525 | 95 | 261 | 11.0 | 19.0 | 0.00 | 0.00 | 0.00 | 44 | 1010.6 |
| 20260502190104 | 93 | 236 | 12.0 | 22.0 | 0.00 | 0.00 | 0.00 | 46 | 1010.6 |
| 20260502184547 | 87 | 164 | 4.0 | 15.0 | 0.00 | 0.00 | 0.00 | 75 | 1010.7 |
| 20260502183021 | 86 | 144 | 7.0 | 16.0 | 0.00 | 0.00 | 0.00 | 76 | 1010.9 |
| 20260502181541 | 86 | 180 | 6.0 | 13.0 | 0.00 | 0.00 | 0.00 | 78 | 1010.9 |
| 20260502163002 | 85 | 205 | 5.0 | 10.0 | 0.00 | 0.00 | 0.00 | 81 | 1011.9 |
| 20260502161528 | 85 | 206 | 3.0 | 12.0 | 0.00 | 0.00 | 0.00 | 80 | 1012.0 |
| 20260502151611 | 85 | 151 | 5.0 | 14.0 | 0.00 | 0.00 | 0.00 | 82 | 1012.3 |
| 20260502123028 | 81 | 232 | 1.0 | 7.0 | 0.00 | 0.00 | 0.00 | 85 | 1011.9 |
| 20260502121546 | 80 | 225 | 1.0 | 4.0 | 0.00 | 0.00 | 0.00 | 86 | 1011.9 |
| 20260502114512 | 77 | 213 | 2.0 | 3.0 | 0.00 | 0.00 | 0.00 | 87 | 1011.9 |
| 20260502113038 | 77 | 269 | 0.0 | 2.0 | 0.00 | 0.00 | 0.00 | 87 | 1012.0 |
| 20260502111516 | 77 | 269 | 0.0 | 0.0 | 0.00 | 0.00 | 0.00 | 87 | 1012.2 |
| 20260502110036 | 76 | 269 | 0.0 | 0.0 | 0.00 | 0.00 | 0.00 | 87 | 1011.9 |
| 20260502104529 | 76 | 269 | 0.0 | 0.0 | 0.00 | 0.00 | 0.00 | 87 | 1011.9 |
| 20260502103059 | 76 | 269 | 0.0 | 1.0 | 0.00 | 0.00 | 0.00 | 86 | 1012.0 |
| 20260502103002 | 76 | 269 | 0.0 | 1.0 | 0.00 | 0.00 | 0.00 | 86 | 1011.9 |
| 20260502101540 | 76 | 269 | 0.0 | 2.0 | 0.00 | 0.00 | 0.00 | 86 | 1011.8 |
| 20260502071515 | 76 | 293 | 1.0 | 4.0 | 0.00 | 0.00 | 0.00 | 81 | 1011.9 |
| 20260502070038 | 77 | 287 | 1.0 | 3.0 | 0.00 | 0.00 | 0.00 | 81 | 1012.0 |
| 20260502064538 | 77 | 285 | 1.0 | 4.0 | 0.00 | 0.00 | 0.00 | 80 | 1012.0 |
| 20260502063056 | 77 | 293 | 2.0 | 4.0 | 0.00 | 0.00 | 0.00 | 81 | 1012.0 |
| 20260502061522 | 77 | 268 | 1.0 | 3.0 | 0.00 | 0.00 | 0.00 | 83 | 1012.1 |
| 20260502060039 | 79 | 252 | 1.0 | 4.0 | 0.00 | 0.00 | 0.00 | 85 | 1012.1 |
| 20260502054532 | 79 | 209 | 1.0 | 5.0 | 0.00 | 0.00 | 0.00 | 85 | 1012.1 |
| 20260502053112 | 79 | 208 | 2.0 | 7.0 | 0.00 | 0.00 | 0.00 | 85 | 1012.0 |
| 20260502051528 | 79 | 186 | 4.0 | 6.0 | 0.00 | 0.00 | 0.00 | 85 | 1012.1 |
| 20260502050048 | 80 | 198 | 1.0 | 7.0 | 0.00 | 0.00 | 0.00 | 85 | 1012.3 |
| 20260502044545 | 80 | 229 | 2.0 | 8.0 | 0.00 | 0.00 | 0.00 | 85 | 1012.5 |